Regional Weather Roundup
Issued by NWS

Home | Current Version | Previous Version | Text Only | Print | Product List | Glossary Off
Versions: 1 2 3 4 5 6 7 8 9 10 11 12 13 14 15 16 17 18 19 20 21 22 23 24 25 26 27 28 29 30 31 32 33 34 35 36 37 38 39 40 41 42 43 44 45 46 47 48 49 50

583
ASUS44 KJAN 250503
RWRMS

MISSISSIPPI HOURLY WEATHER ROUNDUP
NATIONAL WEATHER SERVICE JACKSON MS
1200 AM CDT FRI APR 25 2014

NOTE: "FAIR: INDICATES FEW OR NO CLOUDS BELOW 12,000 FEET WITH NO
SIGNIFICANT WEATHER AND/OR OBSTRUCTIONS TO VISIBILITY.

MSZ001>002-007>008-010>013-018>021-025>028-034>036-250600-
NORTHWEST MISSISSIPPI

CITY           SKY/WX    TMP DP  RH WIND       PRES   REMARKS
CLARKSDALE       N/A     64  61  88 W12       29.82R
CLEVELAND      MOCLDY    65  60  84 NW9       29.84S
GREENWOOD      CLOUDY    67  63  87 W8        29.85R
GREENVILLE     MOCLDY    66  60  81 W7        29.85R
GRENADA        CLOUDY    64  63  94 W8G17     29.82R
OLIVE BRANCH   MOCLDY    63 N/A N/A SW12      29.76F
OXFORD         FAIR      64  63  94 SW9       29.80F
TUNICA         CLEAR     63  55  77 W15       29.80S
$$

MSZ003>006-009-014>017-022>024-029>033-037>039-250600-
NORTHEAST MISSISSIPPI

CITY           SKY/WX    TMP DP  RH WIND       PRES   REMARKS
BELMONT        CLOUDY    64  63  94 S3        29.79F
COLUMBUS AFB   CLOUDY    66  63  88 S13       29.84R
CORINTH        CLOUDY    64  61  88 S5        29.77F
GOLDN TRIANGLE CLOUDY    64  61  88 S14G21    29.87F
STARKVILLE     FAIR      63  63 100 S6        29.84F
TUPELO         CLOUDY    68  61  78 SW10      29.79F
$$

MSZ040-058-250600-
CENTRAL MISSISSIPPI

CITY           SKY/WX    TMP DP  RH WIND       PRES   REMARKS
JACKSON INTL   CLOUDY    73  65  75 SW8       29.87R
JACKSON HAWKNS CLEAR     72  65  78 SW7       29.87S
MERIDIAN KEY   CLOUDY    70  63  78 S12       29.89R
MERIDIAN NAS   CLOUDY    72  62  71 S9G21     29.88R
RAYMOND        FAIR      72  66  83 SW5       29.87S
VICKSBURG      PTCLDY    74  65  73 VRB6      29.87S
$$

MSZ059>079-250600-
SOUTH MISSISSIPPI

CITY           SKY/WX    TMP DP  RH WIND       PRES   REMARKS
BROOKHAVEN     MOCLDY    72  64  78 SW10G16   29.92S
HATTIESBURG    CLOUDY    71  66  84 SW9       29.92S
MCCOMB         CLOUDY    71  64  78 SW7       29.93R
NATCHEZ        CLEAR     70  63  78 S6        29.90S
PINE BELT      PTCLDY    70  64  83 S13       29.92S
$$

MSZ080>082-250600-
COASTAL MISSISSIPPI

CITY           SKY/WX    TMP DP  RH WIND       PRES   REMARKS
BILOXI         NOT AVBL
PASCAGOULA     CLOUDY    71  68  90 S3        29.94S
GULFPORT       MOCLDY    75  68  78 S7        29.93S
$$



USA.gov is the U.S. government's official web portal to all federal, state and local government web resources and services.